Retour au catalogue

SL-6 R/B(2)

ActifHEO
NORAD 16533·ROCKET BODY·🇷🇺 Russia

Lancé Feb 1, 1986 depuis Plesetsk Cosmodrome

Loading…

Prochains Passages (prochaines 24 heures)

TLE

FraisSource: Space-Track

Époque: Sep 14, 2026, 19:01 UTC

1 16533U 86011F   26257.79304102 -.00000355  00000-0  00000-0 0  9996
2 16533  71.0530 119.0089 5226722 359.6067 183.2763  2.04054715285885

Suivez SL-6 R/B(2) en temps réel avec AllMySat

Download on the App Store